When you browse on this site, cookies collect data to enhance your experience and personalize the content and advertising you see.
Visit our Privacy Policy to learn more. By continuing to use the site, you agree to this use of cookies and data.
  • In Hungary
  • List of Countries
  • For 7 days
  • Water Temperature
  • Weather Map
  • News
  • Weather Widgets
  • user-avatar
    Login

    Hourly Weather Sura

    Today, 19 February, Wednesday

    Time Temperature Precipitation Wind Pressure Humidity
    00:00 -2°C° 0 mm 5 mps 748 mmHg 93%
    01:00 -2°C° 0.2 mm 5 mps 748 mmHg 94%
    02:00 -2°C° 0.2 mm 5 mps 747 mmHg 96%
    03:00 -2°C° 0 mm 5 mps 747 mmHg 97%
    04:00 -2°C° 0.4 mm 4 mps 747 mmHg 97%
    05:00 -2°C° 0.4 mm 4 mps 746 mmHg 97%
    06:00 -2°C° 0.4 mm 4 mps 746 mmHg 97%
    07:00 -2°C° 0.1 mm 4 mps 746 mmHg 98%
    08:00 0°C° 0.1 mm 3 mps 746 mmHg 98%
    09:00 0°C° 0.1 mm 3 mps 746 mmHg 99%
    10:00 0°C° 0.1 mm 3 mps 746 mmHg 99%
    11:00 0°C° 0.1 mm 3 mps 746 mmHg 99%
    12:00 +1°C° 0.1 mm 3 mps 746 mmHg 99%
    13:00 +1°C° 0.1 mm 3 mps 746 mmHg 99%
    14:00 +1°C° 0.1 mm 3 mps 747 mmHg 99%
    15:00 +1°C° 0.1 mm 3 mps 747 mmHg 99%
    16:00 +1°C° 0 mm 3 mps 747 mmHg 99%
    17:00 +1°C° 0 mm 3 mps 747 mmHg 99%
    18:00 0°C° 0 mm 3 mps 747 mmHg 99%
    19:00 0°C° 0 mm 3 mps 747 mmHg 98%
    20:00 0°C° 0 mm 3 mps 748 mmHg 97%
    21:00 0°C° 0 mm 3 mps 748 mmHg 96%
    22:00 0°C° 0 mm 3 mps 748 mmHg 97%
    23:00 0°C° 0 mm 3 mps 748 mmHg 97%

    Tomorrow, 20 February, Thursday

    Time Temperature Precipitation Wind Pressure Humidity
    00:00 0°C° 0 mm 3 mps 749 mmHg 98%
    01:00 0°C° 0 mm 3 mps 749 mmHg 96%
    02:00 -1°C° 0 mm 3 mps 749 mmHg 95%
    03:00 -1°C° 0 mm 3 mps 750 mmHg 93%
    04:00 -1°C° 0 mm 3 mps 750 mmHg 94%
    05:00 -2°C° 0 mm 3 mps 750 mmHg 94%
    06:00 -2°C° 0 mm 3 mps 750 mmHg 95%
    07:00 -2°C° 0 mm 3 mps 751 mmHg 96%
    08:00 -2°C° 0 mm 3 mps 751 mmHg 96%
    09:00 -3°C° 0 mm 4 mps 752 mmHg 97%
    10:00 -3°C° 0 mm 4 mps 752 mmHg 97%
    11:00 -1°C° 0 mm 3 mps 752 mmHg 98%
    12:00 -1°C° 0 mm 3 mps 752 mmHg 98%
    13:00 -1°C° 0 mm 3 mps 753 mmHg 98%
    14:00 -1°C° 0 mm 3 mps 753 mmHg 98%
    15:00 -1°C° 0 mm 3 mps 753 mmHg 98%
    16:00 -1°C° 0 mm 2 mps 753 mmHg 97%
    17:00 -1°C° 0 mm 2 mps 753 mmHg 97%
    18:00 -1°C° 0 mm 2 mps 754 mmHg 96%
    19:00 -1°C° 0 mm 2 mps 754 mmHg 96%
    20:00 -1°C° 0 mm 2 mps 754 mmHg 95%
    21:00 -2°C° 0 mm 2 mps 754 mmHg 95%
    22:00 -2°C° 0 mm 2 mps 755 mmHg 95%
    23:00 -3°C° 0 mm 2 mps 755 mmHg 95%

    Day after tomorrow, 21 February, Friday

    Time Temperature Precipitation Wind Pressure Humidity
    00:00 -2°C° 0 mm 1 mps 755 mmHg 95%
    01:00 -2°C° 0 mm 1 mps 755 mmHg 95%
    02:00 -3°C° 0 mm 1 mps 755 mmHg 95%
    03:00 -4°C° 0 mm 1 mps 755 mmHg 95%
    04:00 -4°C° 0 mm 1 mps 755 mmHg 96%
    05:00 -6°C° 0 mm 1 mps 755 mmHg 96%
    06:00 -6°C° 0 mm 1 mps 755 mmHg 97%
    07:00 -4°C° 0 mm 1 mps 756 mmHg 97%
    08:00 -3°C° 0 mm 1 mps 756 mmHg 97%
    09:00 -2°C° 0 mm 1 mps 756 mmHg 97%
    16:00 0°C° 0 mm 1 mps 756 mmHg 94%
    17:00 -1°C° 0 mm 0 mps 757 mmHg 94%
    18:00 -2°C° 0 mm 0 mps 757 mmHg 94%
    19:00 -2°C° 0 mm 0 mps 757 mmHg 94%
    20:00 -2°C° 0 mm 0 mps 757 mmHg 94%
    21:00 -2°C° 0 mm 0 mps 757 mmHg 94%
    22:00 -2°C° 0 mm 0 mps 758 mmHg 93%
    23:00 -2°C° 0 mm 0 mps 758 mmHg 93%

    22 February, Saturday

    Time Temperature Precipitation Wind Pressure Humidity
    00:00 -2°C° 0 mm 0 mps 758 mmHg 93%
    01:00 -2°C° 0 mm 0 mps 758 mmHg 94%
    02:00 -2°C° 0 mm 0 mps 758 mmHg 95%
    03:00 -2°C° 0 mm 0 mps 758 mmHg 96%
    04:00 -2°C° 0 mm 0 mps 758 mmHg 96%
    05:00 -2°C° 0 mm 0 mps 758 mmHg 96%
    06:00 -2°C° 0 mm 0 mps 758 mmHg 96%
    07:00 -2°C° 0 mm 0 mps 758 mmHg 95%
    08:00 -2°C° 0 mm 0 mps 759 mmHg 94%
    09:00 -1°C° 0 mm 0 mps 759 mmHg 93%
    10:00 0°C° 0 mm 1 mps 759 mmHg 92%
    11:00 0°C° 0 mm 1 mps 759 mmHg 91%
    12:00 0°C° 0 mm 1 mps 759 mmHg 90%
    13:00 +1°C° 0 mm 1 mps 759 mmHg 89%
    14:00 -1°C° 0 mm 2 mps 759 mmHg 88%
    15:00 -1°C° 0 mm 2 mps 758 mmHg 87%
    16:00 -2°C° 0 mm 2 mps 758 mmHg 88%
    17:00 -3°C° 0 mm 2 mps 758 mmHg 89%
    18:00 -1°C° 0 mm 1 mps 758 mmHg 91%
    19:00 -3°C° 0 mm 2 mps 758 mmHg 91%
    20:00 -4°C° 0 mm 2 mps 758 mmHg 92%
    21:00 -4°C° 0 mm 2 mps 758 mmHg 93%
    22:00 -4°C° 0 mm 2 mps 758 mmHg 94%
    23:00 -5°C° 0 mm 2 mps 757 mmHg 94%

    23 February, Sunday

    Time Temperature Precipitation Wind Pressure Humidity
    00:00 -5°C° 0 mm 2 mps 757 mmHg 95%
    01:00 -7°C° 0 mm 3 mps 756 mmHg 95%
    02:00 -7°C° 0 mm 3 mps 756 mmHg 95%
    03:00 -7°C° 0 mm 3 mps 755 mmHg 95%
    04:00 -7°C° 0 mm 3 mps 754 mmHg 94%
    05:00 -8°C° 0 mm 4 mps 754 mmHg 93%
    06:00 -8°C° 0 mm 4 mps 753 mmHg 92%
    07:00 -7°C° 0 mm 5 mps 752 mmHg 91%
    08:00 -8°C° 0 mm 6 mps 751 mmHg 90%
    09:00 -8°C° 0 mm 6 mps 751 mmHg 90%
    10:00 -7°C° 0 mm 7 mps 750 mmHg 89%
    11:00 -7°C° 0 mm 7 mps 749 mmHg 89%
    12:00 -6°C° 0 mm 7 mps 748 mmHg 88%
    13:00 -6°C° 0 mm 7 mps 747 mmHg 89%
    14:00 -6°C° 0 mm 8 mps 746 mmHg 89%
    15:00 -5°C° 0 mm 8 mps 745 mmHg 90%
    16:00 -5°C° 0.1 mm 8 mps 744 mmHg 90%
    17:00 -5°C° 0.1 mm 8 mps 743 mmHg 91%
    18:00 -4°C° 0.1 mm 7 mps 742 mmHg 91%
    19:00 -4°C° 0.4 mm 7 mps 741 mmHg 92%
    20:00 -4°C° 0.4 mm 7 mps 741 mmHg 93%
    21:00 -5°C° 0.4 mm 8 mps 740 mmHg 95%
    22:00 -4°C° 0.4 mm 7 mps 739 mmHg 94%
    23:00 -4°C° 0.4 mm 7 mps 738 mmHg 94%

    24 February, Monday

    Time Temperature Precipitation Wind Pressure Humidity
    00:00 -4°C° 0.4 mm 7 mps 737 mmHg 94%
    01:00 -4°C° 0.2 mm 7 mps 737 mmHg 95%
    02:00 -4°C° 0.2 mm 6 mps 736 mmHg 95%
    03:00 -4°C° 0.2 mm 6 mps 735 mmHg 96%
    04:00 -2°C° 0.3 mm 5 mps 735 mmHg 95%
    05:00 -2°C° 0.3 mm 5 mps 735 mmHg 94%
    06:00 -2°C° 0.3 mm 5 mps 735 mmHg 94%
    07:00 -2°C° 0.1 mm 5 mps 736 mmHg 93%
    08:00 -2°C° 0.1 mm 5 mps 736 mmHg 92%
    09:00 -2°C° 0.1 mm 5 mps 736 mmHg 92%
    10:00 -2°C° 0 mm 5 mps 737 mmHg 92%
    11:00 -2°C° 0 mm 5 mps 737 mmHg 92%
    12:00 -2°C° 0 mm 5 mps 738 mmHg 92%
    13:00 -2°C° 0 mm 4 mps 738 mmHg 91%
    14:00 -2°C° 0 mm 4 mps 738 mmHg 90%
    15:00 -2°C° 0 mm 4 mps 738 mmHg 89%
    16:00 -1°C° 0 mm 3 mps 738 mmHg 90%
    17:00 -1°C° 0 mm 3 mps 739 mmHg 90%
    18:00 -2°C° 0 mm 3 mps 739 mmHg 90%
    19:00 -2°C° 0 mm 2 mps 739 mmHg 91%
    20:00 -3°C° 0 mm 2 mps 739 mmHg 91%
    21:00 -3°C° 0 mm 2 mps 739 mmHg 92%
    22:00 -4°C° 0 mm 3 mps 739 mmHg 92%
    23:00 -4°C° 0 mm 3 mps 738 mmHg 92%
    Show more